Location: Unspecified
(44.0704°N, 88.6889°W)
Time: 09:50:16
(UTC+02:00)

Vanguard 2 Rocket - Pass Details

Date: 08 August 2020
Orbit: 554 x 3326 km, 32.9° (Epoch: 22 September)

Event Time Altitude Azimuth Distance (km) Brightness Sun altitude
Rises 05:58:06 0° 267° (W) 4,872 11.0 -23.7°
Reaches altitude 10° 06:00:59 10° 261° (W) 4,202 10.5 -24.0°
Maximum altitude 06:12:24 46° 193° (SSW) 3,210 9.2 -25.1°
Enters shadow 06:18:50 35° 152° (SSE) 4,034 9.5 -25.6°
